Tracking 28790 objects as of 19-Apr-2024
HD Live streaming from Space Station
objects crossing your sky now

ETS 6 DEB

Track ETS 6 DEB now!


NORAD ID: 23248
Int'l Code: 1994-056C
Perigee: 7,694.5 km
Apogee: 38,804.3 km
Inclination: 11.8 °
Period: 845.6 minutes
Semi major axis: 29620 km
RCS: 4.4354 m2 (large)
Launch date: August 28, 1994
Source: Japan (JPN)
Launch site: TANEGASHIMA SPACE CENTER (TNSTA)

Note: This is SATELLITE DEBRIS
Your satellite tracking list
Your tracking list is empty




NASA's NSSDC Master Catalog

Two Line Element Set (TLE):
1 23248U 94056C   24109.30118825 -.00000085  00000-0  00000-0 0  9991
2 23248  11.7976 224.0358 5251422 212.7152  97.7194  1.70301087184240
Source of the keplerian elements: AFSPC